Carbondale, IL

2:04 AM CST on December 16, 2019 (GMT -0600)
Southern Illinois

Weather History for KMDH - July, 2019

Change the Weather History Date:

Saturday, July 27, 2019

  Actual Average Record
Temperature  
Mean Temperature 75 °F -  
Max Temperature 86 °F 88 °F 110 °F (1930)
Min Temperature 64 °F 65 °F 45 °F (1962)
Cooling Degree Days 10    
Growing Degree Days 25 (Base 50)    
Moisture  
Dew Point 65 °F    
Average Humidity 77    
Maximum Humidity 100    
Minimum Humidity 49    
Precipitation  
Precipitation 0.00 in - - ()
Sea Level Pressure  
Sea Level Pressure 30.20 in    
Wind  
Wind Speed 3 mph (SSW)    
Max Wind Speed 15 mph    
Max Gust Speed 25 mph    
Visibility 8 miles    
Events      
Averages and records for this station are not official NWS values.
T = Trace of Precipitation, MM = Missing Value Source: NWS Daily Summary

Daily Weather History Graph

Daily Weather History Graph

Search for Another Location

Airport or City:

Astronomy

Jul. 27, 2019 Rise Set
Actual Time 5:56 AM CDT 8:10 PM CDT
Civil Twilight 5:26 AM CDT 8:39 PM CDT
Nautical Twilight 4:50 AM CDT 9:15 PM CDT
Astronomical Twilight 4:10 AM CDT 9:55 PM CDT
Moon 1:41 AM CDT (7/27) 4:01 PM CDT (7/27)
Length of Visible Light 15h 13m
Length of Day
14h 14m
Waning Crescent, 24% of the Moon is Illuminated
Jul 27
Waning Crescent
Jul 31
New
Aug 7
First Quarter
Aug 15
Full
Aug 23
Last Quarter

Hourly Weather History & Observations

Time (CDT) Temp. Heat Index Dew Point Humidity Pressure Visibility Wind Dir Wind Speed Gust Speed Precip Events Conditions
12:52 AM 66.9 °F - 64.9 °F 93% 30.20 in 9.0 mi Calm Calm - N/A   Clear
1:52 AM 66.0 °F - 64.9 °F 96% 30.19 in 7.0 mi Calm Calm - N/A   Clear
2:52 AM 66.0 °F - 64.9 °F 96% 30.19 in 6.0 mi Calm Calm - N/A   Clear
3:52 AM 64.9 °F - 64.0 °F 97% 30.19 in 6.0 mi Calm Calm - N/A   Clear
4:52 AM 64.9 °F - 64.0 °F 97% 30.19 in 6.0 mi Calm Calm - N/A   Clear
5:52 AM 64.0 °F - 63.0 °F 96% 30.21 in 4.0 mi Calm Calm - N/A   Clear
6:08 AM 64.0 °F - 63.0 °F 96% 30.22 in 1.5 mi Calm Calm - N/A   Clear
6:17 AM 64.9 °F - 64.0 °F 97% 30.23 in 0.8 mi Calm Calm - N/A   Mist
6:19 AM 64.0 °F - 64.0 °F 100% 30.23 in 1.2 mi Calm Calm - N/A   Partly Cloudy
6:28 AM 64.9 °F - 64.0 °F 97% 30.23 in 3.0 mi Calm Calm - N/A   Partly Cloudy
6:52 AM 66.9 °F - 66.0 °F 97% 30.22 in 4.0 mi Calm Calm - N/A   Clear
7:52 AM 70.0 °F - 66.9 °F 90% 30.23 in 9.0 mi Calm Calm - N/A   Clear
8:52 AM 78.1 °F - 69.1 °F 74% 30.24 in 10.0 mi South 4.6 mph - N/A   Clear
9:52 AM 81.0 °F 83.8 °F 68.0 °F 65% 30.23 in 10.0 mi WSW 5.8 mph - N/A   Clear
10:52 AM 82.9 °F 85.4 °F 66.9 °F 58% 30.23 in 10.0 mi SSW 10.4 mph - N/A   Clear
11:52 AM 84.9 °F 86.6 °F 64.9 °F 51% 30.22 in 10.0 mi SSW 10.4 mph 19.6 mph N/A   Clear
12:52 PM 84.9 °F 86.6 °F 64.9 °F 51% 30.20 in 10.0 mi SSW 15.0 mph 23.0 mph N/A   Partly Cloudy
1:52 PM 86.0 °F 88.2 °F 66.0 °F 51% 30.19 in 10.0 mi SSW 13.8 mph 25.3 mph N/A   Clear
2:52 PM 86.0 °F 87.6 °F 64.9 °F 49% 30.18 in 10.0 mi SW 12.7 mph - N/A   Scattered Clouds
3:52 PM 84.9 °F 87.1 °F 66.0 °F 53% 30.17 in 10.0 mi South 12.7 mph - N/A   Scattered Clouds
4:52 PM 84.9 °F 86.1 °F 64.0 °F 49% 30.16 in 10.0 mi SW 11.5 mph - N/A   Clear
5:52 PM 84.0 °F 85.4 °F 64.0 °F 51% 30.16 in 10.0 mi SW 9.2 mph - N/A   Clear
6:52 PM 82.9 °F 84.6 °F 64.9 °F 54% 30.15 in 10.0 mi SSW 6.9 mph - N/A   Clear
7:52 PM 77.0 °F - 66.9 °F 71% 30.15 in 10.0 mi South 5.8 mph - N/A   Clear
8:52 PM 73.0 °F - 68.0 °F 84% 30.15 in 10.0 mi South 3.5 mph - N/A   Clear
9:52 PM 71.1 °F - 68.0 °F 90% 30.16 in 10.0 mi South 3.5 mph - N/A   Clear